Orbital Elements at Epoch 2459000.5 (2020-May-31.0) TDB
Reference: JPL 8 (heliocentric ecliptic J2000)
Element | Value | Uncertainty (1-sigma) | Units |
e | .09436575094098304 | 6.4128e-08 | |
a | 2.600755695912149 | 2.4689e-08 | au |
q | 2.35533343165336 | 1.6891e-07 | au |
i | 10.21210632972442 | 7.8817e-06 | deg |
node | 137.4480161233103 | 3.478e-05 | deg |
peri | 150.0736280558995 | 5.9354e-05 | deg |
M | 354.6627974276922 | 4.2865e-05 | deg |
tp | 2459023.212186735864 (2020-Jun-22.71218674) | 0.00018233 | TDB |
period | 1531.961193928518 4.19 | 2.1815e-05 5.973e-08 | d yr |
n | .2349928976182655 | 3.3462e-09 | deg/d |
Q | 2.846177960170937 | 2.7019e-08 | au |
|
| | Orbit Determination Parameters
Additional Information
|